This is the latest recevied weather packets stored in our database for station/object KB5DPX. If no packets are shown the sender has not sent any weather packets the latest 10 day(s).
| Time | Temp. | Humidity | Pressure | Rain* | Wind** | Luminosity | Snow |
|---|---|---|---|---|---|---|---|
| 1787754489 | 17.78° C | 70% | 1010.5 hPa | 0 mm | - | 216 W/m² | - |
| 1787754179 | 17.78° C | 70% | 1010.5 hPa | 0 mm | - | 171 W/m² | - |
| 1787753885 | 17.22° C | 68% | 1010.7 hPa | 0 mm | - | 144 W/m² | - |
| 1787753593 | 17.22° C | 67% | 1010.7 hPa | 0 mm | - | 165 W/m² | - |
| 1787753281 | 17.22° C | 68% | 1011 hPa | 0.25 mm | - | 176 W/m² | - |
| 1787752990 | 16.67° C | 68% | 1010.9 hPa | 0.25 mm | - | 225 W/m² | - |
| 1787752678 | 16.67° C | 69% | 1011 hPa | 0.76 mm | - | 234 W/m² | - |
| 1787752390 | 16.67° C | 70% | 1011 hPa | 1.02 mm | - | 185 W/m² | - |
| 1787752076 | 16.67° C | 70% | 1011 hPa | 1.02 mm | - | 49 W/m² | - |
| 1787751784 | 16.67° C | 71% | 1011 hPa | 1.02 mm | - | 53 W/m² | - |
| 1787751492 | 16.67° C | 70% | 1011.1 hPa | 1.02 mm | - | 49 W/m² | - |
| 1787750886 | 16.11° C | 71% | 1011.3 hPa | 1.27 mm | - | 86 W/m² | - |
| 1787750575 | 16.11° C | 72% | 1011.4 hPa | 1.27 mm | - | 47 W/m² | - |
| 1787750285 | 16.11° C | 72% | 1011.5 hPa | 1.27 mm | - | 65 W/m² | - |
| 1787749996 | 16.11° C | 73% | 1011.7 hPa | 1.27 mm | - | 46 W/m² | - |
| 1787749682 | 16.11° C | 74% | 1011.8 hPa | 1.02 mm | - | 35 W/m² | - |
| 1787749387 | 15.56° C | 75% | 1011.8 hPa | 0.76 mm | - | 16 W/m² | - |
| 1787749077 | 15.56° C | 77% | 1011.9 hPa | 0.51 mm | - | 9 W/m² | - |
| 1787748783 | 15.56° C | 79% | 1011.8 hPa | 0.51 mm | - | 12 W/m² | - |
| 1787748492 | 15.56° C | 79% | 1011.8 hPa | 0.51 mm | - | 21 W/m² | - |
| 1787748182 | 15.56° C | 79% | 1011.8 hPa | 0.51 mm | - | 39 W/m² | - |
| 1787747891 | 15.56° C | 80% | 1011.9 hPa | 0.51 mm | - | 47 W/m² | - |
| 1787747581 | 15.56° C | 81% | 1012 hPa | 0.51 mm | - | 54 W/m² | - |
| 1787747288 | 15.56° C | 82% | 1012 hPa | 0.25 mm | - | 74 W/m² | - |
| 1787746976 | 15.56° C | 83% | 1012 hPa | 0.25 mm | - | 56 W/m² | - |
* Rain latest hour (hover to see other rain measurements)
** Current wind speed in m/s (hover to see current wind gust speed)